DW3464 Weather Reports


time (UTC)temp
C
wind
direction
speed
KPH
gust
KPH
rain 1hr
cm
rain 24hr
cm
rain mn
cm
humidity
%
barometer
mb
20260506103101 6 306 0.0 1.6 0.00 0.69 0.20 98 1009.3
20260506101556 6 286 0.0 3.2 0.00 0.69 0.20 99 1009.6
20260506100059 6 151 0.0 1.6 0.00 0.69 0.20 99 1009.4
20260506094553 6 184 0.0 6.4 0.00 0.69 0.20 99 1009.1
20260506093051 6 215 0.0 4.8 0.00 0.69 0.20 99 1008.9
20260506091552 7 109 0.0 3.2 0.00 0.69 0.20 99 1008.6
20260506090050 7 190 0.0 3.2 0.00 0.69 0.20 99 1009.2
20260506084553 7 180 0.0 6.4 0.00 0.69 0.20 99 1009.1
20260506083051 7 186 0.0 4.8 0.00 0.69 0.20 99 1008.9
20260506081549 7 186 0.0 3.2 0.00 0.69 0.20 99 1008.8
20260506073047 7 193 0.0 4.8 0.05 0.69 0.20 98 1008.6
20260506071542 7 202 0.0 6.4 0.05 0.69 0.20 97 1008.6
20260506061536 7 163 0.0 6.4 0.00 0.64 0.15 97 1008.3
20260506044522 8 223 0.0 4.8 0.15 0.58 0.10 98 1008.0
20260506043020 8 196 0.0 8.0 0.15 0.56 0.08 97 1007.6
20260506041517 8 301 3.2 11.3 0.15 0.53 0.05 96 1007.4
20260506040032 9 257 3.2 12.9 0.13 0.48 0.00 96 1007.7
20260506034513 9 332 1.6 6.4 0.10 0.43 0.43 96 1007.0
20260506033011 10 286 3.2 20.9 0.10 0.41 0.41 94 1007.1
20260506031510 10 256 0.0 16.1 0.13 0.38 0.38 93 1006.5
20260506030012 10 242 3.2 22.5 0.10 0.36 0.36 92 1006.5
20260506024508 10 304 4.8 20.9 0.08 0.33 0.33 92 1006.6
20260506023004 11 290 4.8 14.5 0.05 0.30 0.30 89 1006.3
20260506021503 12 273 4.8 25.7 0.00 0.25 0.25 81 1006.1
20260506020002 14 198 4.8 17.7 0.00 0.25 0.25 73 1005.7
20260506014601 15 251 1.6 19.3 0.00 0.25 0.25 72 1005.5
20260506013104 15 296 1.6 17.7 0.00 0.25 0.25 70 1005.0
20260506011555 15 281 1.6 29.0 0.00 0.25 0.25 69 1004.7
20260506010110 15 253 1.6 19.3 0.00 0.25 0.25 69 1004.4
20260506004553 16 302 4.8 17.7 0.00 0.25 0.25 69 1004.0
20260506003050 16 300 1.6 20.9 0.00 0.25 0.25 71 1003.5
20260506001548 16 244 3.2 32.2 0.00 0.25 0.25 74 1003.7
20260506000046 16 296 3.2 16.1 0.00 0.25 0.25 81 1003.4
20260505234602 16 254 1.6 8.0 0.00 0.25 0.25 85 1003.0
20260505233042 16 281 1.6 11.3 0.00 0.25 0.25 83 1002.8
20260505231541 16 176 1.6 9.7 0.00 0.25 0.25 83 1002.6
20260505230040 16 309 1.6 11.3 0.00 0.25 0.25 82 1002.2
20260505224540 17 285 3.2 17.7 0.00 0.25 0.25 81 1001.9
20260505223040 17 185 3.2 11.3 0.00 0.25 0.25 80 1001.5
20260505221539 17 275 1.6 14.5 0.00 0.25 0.25 79 1001.2
20260505220041 17 148 1.6 16.1 0.00 0.25 0.25 77 1001.1
20260505214559 18 132 4.8 14.5 0.00 0.25 0.25 77 1000.9
20260505213037 18 219 6.4 27.4 0.00 0.25 0.25 76 1000.5
20260505211535 18 205 4.8 24.1 0.00 0.25 0.25 76 1000.4
20260505210034 18 174 3.2 22.5 0.00 0.25 0.25 75 999.9
20260505204537 18 225 4.8 32.2 0.00 0.25 0.25 76 999.8
20260505203038 17 235 3.2 25.7 0.03 0.25 0.25 78 999.9
20260505201536 17 258 4.8 20.9 0.03 0.25 0.25 82 1000.1
20260505200031 16 11 3.2 33.8 0.03 0.25 0.25 84 1000.0
20260505194538 16 233 6.4 37.0 0.03 0.28 0.25 86 1000.3
20260505193031 17 336 3.2 19.3 0.00 0.25 0.23 83 1000.1
20260505191529 17 205 4.8 19.3 0.00 0.25 0.23 81 1000.0
20260505190029 18 196 3.2 12.9 0.00 0.25 0.23 78 1000.0
20260505184528 18 215 4.8 14.5 0.00 0.25 0.23 77 999.9
20260505183027 18 178 1.6 20.9 0.00 0.25 0.23 76 1000.0
20260505181527 19 248 3.2 17.7 0.03 0.25 0.23 75 999.8
20260505180050 18 192 3.2 17.7 0.08 0.25 0.23 77 999.7
20260505174546 18 191 1.6 14.5 0.08 0.25 0.23 82 999.6
20260505173031 17 256 3.2 22.5 0.08 0.25 0.23 81 999.5
20260505171525 20 223 1.6 30.6 0.03 0.20 0.18 72 999.4
20260505170023 21 188 3.2 20.9 0.00 0.18 0.15 62 998.7
20260505164522 21 193 6.4 20.9 0.00 0.18 0.15 61 998.8
20260505163020 21 146 6.4 17.7 0.00 0.18 0.15 62 999.3
20260505161517 21 342 1.6 16.1 0.00 0.18 0.15 63 999.5
20260505153008 21 300 3.2 14.5 0.00 0.20 0.15 65 1000.0
20260505151504 20 197 3.2 16.1 0.00 0.20 0.15 67 1000.3
20260505124547 15 197 3.2 12.9 0.03 0.38 0.03 77 1001.9
20260505123049 16 146 0.0 8.0 0.00 0.36 0.00 71 1001.5
20260505121544 17 193 1.6 17.7 0.00 0.36 0.00 63 1001.3
20260505120044 17 248 1.6 12.9 0.00 0.36 0.00 61 1001.2
20260505114539 17 167 0.0 16.1 0.00 0.36 0.00 62 1001.1
20260505113035 16 169 1.6 11.3 0.00 0.36 0.00 63 1001.2
20260505111534 16 182 0.0 12.9 0.00 0.36 0.00 63 1001.3